| time (UTC) | temp C | wind direction | speed KPH | gust KPH | rain 1hr cm | rain 24hr cm | rain mn cm | humidity % | barometer mb |
| 20260507200052 | 15 | 360 | 8.0 | 24.1 | 0.00 | 0.00 | 0.00 | 55 | 1010.0 |
| 20260507194553 | 15 | 360 | 8.0 | 32.2 | 0.00 | 0.00 | 0.00 | 54 | 1010.7 |
| 20260507193058 | 14 | 360 | 6.4 | 22.5 | 0.00 | 0.00 | 0.00 | 55 | 1010.8 |
| 20260507191557 | 14 | 360 | 8.0 | 22.5 | 0.00 | 0.00 | 0.00 | 56 | 1010.9 |
| 20260507190054 | 14 | 360 | 6.4 | 29.0 | 0.00 | 0.00 | 0.00 | 56 | 1011.1 |
| 20260507184550 | 14 | 360 | 8.0 | 24.1 | 0.00 | 0.00 | 0.00 | 53 | 1011.1 |
| 20260507183054 | 14 | 360 | 9.7 | 22.5 | 0.00 | 0.00 | 0.00 | 47 | 1011.3 |
| 20260507181552 | 15 | 360 | 8.0 | 22.5 | 0.00 | 0.00 | 0.00 | 43 | 1011.2 |
| 20260507180047 | 14 | 0 | 4.8 | 24.1 | 0.00 | 0.00 | 0.00 | 46 | 1011.4 |
| 20260507174604 | 15 | 360 | 8.0 | 24.1 | 0.00 | 0.00 | 0.00 | 40 | 1011.7 |
| 20260507173058 | 15 | 360 | 8.0 | 22.5 | 0.00 | 0.00 | 0.00 | 41 | 1011.8 |
| 20260507171611 | 14 | 360 | 3.2 | 17.7 | 0.00 | 0.00 | 0.00 | 44 | 1012.1 |
| 20260507170058 | 13 | 360 | 4.8 | 17.7 | 0.00 | 0.00 | 0.00 | 45 | 1012.6 |
| 20260507164604 | 14 | 360 | 8.0 | 22.5 | 0.00 | 0.00 | 0.00 | 41 | 1012.8 |
| 20260507163049 | 15 | 360 | 3.2 | 16.1 | 0.00 | 0.00 | 0.00 | 45 | 1012.9 |
| 20260507161553 | 13 | 360 | 6.4 | 17.7 | 0.00 | 0.00 | 0.00 | 44 | 1013.3 |
| 20260507160059 | 13 | 360 | 3.2 | 14.5 | 0.00 | 0.00 | 0.00 | 43 | 1013.4 |
| 20260507154551 | 13 | 360 | 4.8 | 12.9 | 0.00 | 0.00 | 0.00 | 43 | 1013.5 |
| 20260507153050 | 13 | 360 | 1.6 | 9.7 | 0.00 | 0.00 | 0.00 | 45 | 1013.6 |
| 20260507151554 | 12 | 360 | 3.2 | 12.9 | 0.00 | 0.00 | 0.00 | 46 | 1013.8 |
| 20260507150059 | 12 | 360 | 3.2 | 9.7 | 0.00 | 0.00 | 0.00 | 45 | 1013.9 |
| 20260507144550 | 11 | 360 | 4.8 | 12.9 | 0.00 | 0.00 | 0.00 | 47 | 1014.1 |
| 20260507143103 | 11 | 360 | 3.2 | 14.5 | 0.00 | 0.00 | 0.00 | 49 | 1014.4 |
| 20260507141555 | 10 | 360 | 3.2 | 12.9 | 0.00 | 0.00 | 0.00 | 51 | 1014.4 |
| 20260507140051 | 10 | 0 | 3.2 | 9.7 | 0.00 | 0.00 | 0.00 | 52 | 1014.4 |
| 20260507134556 | 9 | 360 | 3.2 | 8.0 | 0.00 | 0.00 | 0.00 | 54 | 1014.7 |
| 20260507133058 | 8 | 360 | 1.6 | 9.7 | 0.00 | 0.00 | 0.00 | 58 | 1014.9 |
| 20260507131613 | 8 | 360 | 3.2 | 9.7 | 0.00 | 0.00 | 0.00 | 63 | 1015.0 |
| 20260507130055 | 7 | 360 | 1.6 | 9.7 | 0.00 | 0.00 | 0.00 | 73 | 1015.0 |
| 20260507124555 | 5 | 0 | 0.0 | 3.2 | 0.00 | 0.00 | 0.00 | 89 | 1014.9 |
| 20260507123056 | 3 | 360 | 1.6 | 3.2 | 0.00 | 0.00 | 0.00 | 91 | 1014.7 |
| 20260507121558 | 2 | 0 | 0.0 | 0.0 | 0.00 | 0.00 | 0.00 | 92 | 1014.6 |
| 20260507120052 | 1 | 0 | 0.0 | 0.0 | 0.00 | 0.00 | 0.00 | 93 | 1014.4 |
| 20260507114551 | 0 | 0 | 0.0 | 0.0 | 0.00 | 0.00 | 0.00 | 92 | 1014.5 |
| 20260507113052 | 0 | 0 | 0.0 | 0.0 | 0.00 | 0.00 | 0.00 | 92 | 1014.5 |
| 20260507111550 | -1 | 0 | 0.0 | 0.0 | 0.00 | 0.00 | 0.00 | 91 | 1014.3 |
| 20260507110106 | -1 | 0 | 0.0 | 0.0 | 0.00 | 0.00 | 0.00 | 90 | 1014.3 |
| 20260507104554 | -1 | 0 | 0.0 | 0.0 | 0.00 | 0.00 | 0.00 | 90 | 1014.3 |
| 20260507103055 | -1 | 0 | 0.0 | 0.0 | 0.00 | 0.00 | 0.00 | 90 | 1014.6 |
| 20260507101554 | -1 | 0 | 0.0 | 0.0 | 0.00 | 0.00 | 0.00 | 90 | 1014.4 |
| 20260507100054 | -1 | 0 | 0.0 | 0.0 | 0.00 | 0.00 | 0.00 | 89 | 1014.3 |
| 20260507094607 | -1 | 0 | 0.0 | 0.0 | 0.00 | 0.00 | 0.00 | 89 | 1014.5 |
| 20260507093101 | -1 | 0 | 0.0 | 0.0 | 0.00 | 0.00 | 0.00 | 89 | 1014.4 |
| 20260507091641 | -1 | 0 | 0.0 | 0.0 | 0.00 | 0.00 | 0.00 | 88 | 1014.5 |
| 20260507090107 | -1 | 0 | 0.0 | 0.0 | 0.00 | 0.00 | 0.00 | 88 | 1014.4 |
| 20260507084557 | -1 | 0 | 0.0 | 0.0 | 0.00 | 0.00 | 0.00 | 88 | 1014.6 |
| 20260507083053 | 0 | 0 | 0.0 | 0.0 | 0.00 | 0.00 | 0.00 | 87 | 1014.6 |
| 20260507081555 | 0 | 0 | 0.0 | 0.0 | 0.00 | 0.00 | 0.00 | 87 | 1014.4 |
| 20260507080056 | 0 | 0 | 0.0 | 0.0 | 0.00 | 0.00 | 0.00 | 86 | 1014.4 |
| 20260507074557 | 0 | 0 | 0.0 | 0.0 | 0.00 | 0.00 | 0.00 | 86 | 1014.4 |
| 20260507073051 | 0 | 0 | 0.0 | 0.0 | 0.00 | 0.00 | 0.00 | 85 | 1014.6 |
| 20260507071556 | 0 | 0 | 0.0 | 0.0 | 0.00 | 0.00 | 0.00 | 85 | 1014.4 |
| 20260507070100 | 0 | 0 | 0.0 | 0.0 | 0.00 | 0.00 | 0.00 | 84 | 1014.7 |
| 20260507064552 | 0 | 0 | 0.0 | 0.0 | 0.00 | 0.00 | 0.00 | 83 | 1014.8 |
| 20260507063054 | 0 | 0 | 0.0 | 0.0 | 0.00 | 0.00 | 0.00 | 82 | 1014.8 |
| 20260507061552 | 0 | 0 | 0.0 | 0.0 | 0.00 | 0.00 | 0.00 | 81 | 1014.9 |
| 20260507060105 | 1 | 0 | 0.0 | 0.0 | 0.00 | 0.00 | 0.00 | 80 | 1014.8 |
| 20260507054556 | 1 | 0 | 0.0 | 0.0 | 0.00 | 0.00 | 0.00 | 80 | 1015.0 |
| 20260507053054 | 1 | 0 | 0.0 | 0.0 | 0.00 | 0.00 | 0.00 | 77 | 1014.9 |
| 20260507051552 | 1 | 0 | 0.0 | 0.0 | 0.00 | 0.00 | 0.00 | 76 | 1014.9 |
| 20260507050054 | 2 | 0 | 0.0 | 0.0 | 0.00 | 0.00 | 0.00 | 72 | 1015.0 |
| 20260507044555 | 2 | 0 | 0.0 | 0.0 | 0.00 | 0.00 | 0.00 | 70 | 1014.9 |
| 20260507043053 | 3 | 0 | 0.0 | 0.0 | 0.00 | 0.00 | 0.00 | 69 | 1014.9 |
| 20260507041551 | 3 | 0 | 0.0 | 0.0 | 0.00 | 0.00 | 0.00 | 67 | 1014.7 |
| 20260507040052 | 3 | 0 | 0.0 | 0.0 | 0.00 | 0.00 | 0.00 | 66 | 1014.8 |
| 20260507034559 | 4 | 0 | 0.0 | 0.0 | 0.00 | 0.00 | 0.00 | 64 | 1014.7 |
| 20260507033053 | 4 | 0 | 0.0 | 0.0 | 0.00 | 0.00 | 0.00 | 63 | 1014.7 |
| 20260507031552 | 5 | 0 | 0.0 | 0.0 | 0.00 | 0.00 | 0.00 | 62 | 1014.7 |
| 20260507030054 | 5 | 0 | 0.0 | 0.0 | 0.00 | 0.00 | 0.00 | 60 | 1014.7 |
| 20260507024558 | 5 | 0 | 0.0 | 0.0 | 0.00 | 0.00 | 0.00 | 60 | 1014.7 |
| 20260507023050 | 6 | 0 | 0.0 | 0.0 | 0.00 | 0.00 | 0.00 | 57 | 1014.7 |
| 20260507021552 | 6 | 0 | 0.0 | 0.0 | 0.00 | 0.00 | 0.00 | 55 | 1014.4 |
| 20260507020054 | 7 | 0 | 0.0 | 4.8 | 0.00 | 0.00 | 0.00 | 53 | 1014.1 |
| 20260507014553 | 7 | 0 | 0.0 | 1.6 | 0.00 | 0.00 | 0.00 | 51 | 1013.9 |
| 20260507013052 | 8 | 5 | 0.0 | 6.4 | 0.00 | 0.00 | 0.00 | 50 | 1014.0 |
| 20260507011554 | 8 | 0 | 0.0 | 11.3 | 0.00 | 0.00 | 0.00 | 50 | 1014.0 |
| 20260507010105 | 9 | 5 | 0.0 | 6.4 | 0.00 | 0.00 | 0.00 | 48 | 1013.8 |
| 20260507004554 | 10 | 0 | 0.0 | 6.4 | 0.00 | 0.00 | 0.00 | 45 | 1013.7 |
| 20260507003051 | 10 | 360 | 1.6 | 9.7 | 0.00 | 0.00 | 0.00 | 45 | 1013.8 |
| 20260507001559 | 10 | 360 | 1.6 | 9.7 | 0.00 | 0.00 | 0.00 | 45 | 1013.7 |
| 20260507000056 | 11 | 360 | 1.6 | 17.7 | 0.00 | 0.00 | 0.00 | 44 | 1013.4 |
| 20260506234550 | 11 | 360 | 3.2 | 14.5 | 0.00 | 0.00 | 0.00 | 43 | 1013.3 |
| 20260506233100 | 11 | 360 | 1.6 | 16.1 | 0.00 | 0.00 | 0.00 | 43 | 1013.2 |
| 20260506231550 | 11 | 360 | 3.2 | 12.9 | 0.00 | 0.00 | 0.00 | 42 | 1013.1 |
| 20260506230054 | 12 | 360 | 3.2 | 12.9 | 0.00 | 0.00 | 0.00 | 43 | 1012.9 |
| 20260506224556 | 11 | 360 | 1.6 | 14.5 | 0.00 | 0.00 | 0.00 | 43 | 1012.9 |
| 20260506223058 | 12 | 360 | 3.2 | 19.3 | 0.00 | 0.00 | 0.00 | 42 | 1012.7 |
| 20260506221557 | 12 | 360 | 3.2 | 19.3 | 0.00 | 0.00 | 0.00 | 43 | 1012.8 |
| 20260506220053 | 13 | 360 | 4.8 | 22.5 | 0.00 | 0.00 | 0.00 | 40 | 1012.5 |
| 20260506214556 | 13 | 360 | 3.2 | 24.1 | 0.00 | 0.00 | 0.00 | 39 | 1012.4 |
| 20260506213057 | 13 | 360 | 4.8 | 17.7 | 0.00 | 0.00 | 0.00 | 40 | 1012.3 |
| 20260506211554 | 13 | 360 | 4.8 | 22.5 | 0.00 | 0.00 | 0.00 | 38 | 1012.4 |
| 20260506210053 | 13 | 360 | 4.8 | 12.9 | 0.00 | 0.00 | 0.00 | 39 | 1012.4 |
| 20260506204554 | 13 | 360 | 6.4 | 20.9 | 0.00 | 0.00 | 0.00 | 36 | 1012.4 |
| 20260506203051 | 14 | 360 | 4.8 | 22.5 | 0.00 | 0.00 | 0.00 | 38 | 1012.6 |
| 20260506201549 | 14 | 360 | 8.0 | 22.5 | 0.00 | 0.00 | 0.00 | 36 | 1012.7 |